| time (UTC) | temp F | wind direction | speed MPH | gust MPH | rain 1hr in | rain 24hr in | rain mn in | humidity % | barometer mb |
| 20260906002332 | 101 | 291 | 4.0 | 10.0 | 0.00 | 0.00 | 0.00 | 24 | 1014.4 |
| 20260906001820 | 101 | 310 | 4.0 | 9.0 | 0.00 | 0.00 | 0.00 | 24 | 1014.4 |
| 20260906001518 | 100 | 265 | 4.0 | 9.0 | 0.00 | 0.00 | 0.00 | 28 | 1011.0 |
| 20260906001329 | 101 | 322 | 4.0 | 9.0 | 0.00 | 0.00 | 0.00 | 25 | 1014.3 |
| 20260906000816 | 101 | 276 | 4.0 | 12.0 | 0.00 | 0.00 | 0.00 | 25 | 1014.3 |
| 20260906000327 | 101 | 263 | 5.0 | 12.0 | 0.00 | 0.00 | 0.00 | 24 | 1014.3 |
| 20260906000010 | 101 | 255 | 2.0 | 12.0 | 0.00 | 0.00 | 0.00 | 28 | 1010.8 |
| 20260905235818 | 102 | 314 | 1.0 | 12.0 | 0.00 | 0.00 | 0.00 | 25 | 1014.2 |
| 20260905235329 | 102 | 306 | 7.0 | 12.0 | 0.00 | 0.00 | 0.00 | 25 | 1014.2 |
| 20260905234816 | 102 | 329 | 3.0 | 8.0 | 0.00 | 0.00 | 0.00 | 26 | 1014.2 |
| 20260905234512 | 101 | 333 | 4.0 | 8.0 | 0.00 | 0.00 | 0.00 | 29 | 1010.8 |
| 20260905234325 | 102 | 311 | 3.0 | 8.0 | 0.00 | 0.00 | 0.00 | 25 | 1014.2 |
| 20260905233833 | 102 | 307 | 2.0 | 9.0 | 0.00 | 0.00 | 0.00 | 26 | 1014.2 |
| 20260905233320 | 102 | 245 | 5.0 | 11.0 | 0.00 | 0.00 | 0.00 | 26 | 1014.2 |
| 20260905233016 | 102 | 245 | 7.0 | 14.0 | 0.00 | 0.00 | 0.00 | 29 | 1010.8 |
| 20260905232827 | 102 | 280 | 3.0 | 14.0 | 0.00 | 0.00 | 0.00 | 26 | 1014.2 |
| 20260905232317 | 102 | 242 | 4.0 | 14.0 | 0.00 | 0.00 | 0.00 | 26 | 1014.2 |
| 20260905231823 | 103 | 296 | 6.0 | 10.0 | 0.00 | 0.00 | 0.00 | 26 | 1014.2 |
| 20260905231520 | 102 | 259 | 5.0 | 11.0 | 0.00 | 0.00 | 0.00 | 30 | 1010.7 |
| 20260905231318 | 103 | 236 | 4.0 | 11.0 | 0.00 | 0.00 | 0.00 | 26 | 1014.2 |
| 20260905230825 | 102 | 263 | 4.0 | 8.0 | 0.00 | 0.00 | 0.00 | 26 | 1014.3 |
| 20260905230317 | 103 | 12 | 3.0 | 11.0 | 0.00 | 0.00 | 0.00 | 26 | 1014.3 |
| 20260905230019 | 103 | 315 | 3.0 | 11.0 | 0.00 | 0.00 | 0.00 | 30 | 1010.8 |
| 20260905225824 | 103 | 300 | 3.0 | 11.0 | 0.00 | 0.00 | 0.00 | 27 | 1014.3 |
| 20260905225315 | 103 | 342 | 4.0 | 10.0 | 0.00 | 0.00 | 0.00 | 26 | 1014.3 |
| 20260905224822 | 103 | 252 | 6.0 | 10.0 | 0.00 | 0.00 | 0.00 | 26 | 1014.3 |
| 20260905224522 | 103 | 262 | 3.0 | 8.0 | 0.00 | 0.00 | 0.00 | 30 | 1010.8 |
| 20260905224354 | 103 | 291 | 4.0 | 7.0 | 0.00 | 0.00 | 0.00 | 27 | 1014.3 |
| 20260905223818 | 102 | 263 | 4.0 | 10.0 | 0.00 | 0.00 | 0.00 | 27 | 1014.3 |
| 20260905223349 | 103 | 13 | 4.0 | 9.0 | 0.00 | 0.00 | 0.00 | 27 | 1014.3 |
| 20260905223017 | 102 | 297 | 5.0 | 9.0 | 0.00 | 0.00 | 0.00 | 30 | 1010.9 |
| 20260905222816 | 103 | 284 | 4.0 | 9.0 | 0.00 | 0.00 | 0.00 | 26 | 1014.4 |
| 20260905222327 | 102 | 355 | 2.0 | 6.0 | 0.00 | 0.00 | 0.00 | 27 | 1014.5 |
| 20260905221818 | 102 | 286 | 2.0 | 7.0 | 0.00 | 0.00 | 0.00 | 26 | 1014.6 |
| 20260905221520 | 102 | 102 | 1.0 | 7.0 | 0.00 | 0.00 | 0.00 | 30 | 1011.1 |
| 20260905221329 | 102 | 96 | 2.0 | 7.0 | 0.00 | 0.00 | 0.00 | 26 | 1014.7 |
| 20260905220817 | 102 | 178 | 2.0 | 6.0 | 0.00 | 0.00 | 0.00 | 26 | 1014.8 |
| 20260905220328 | 102 | 231 | 3.0 | 14.0 | 0.00 | 0.00 | 0.00 | 27 | 1014.8 |
| 20260905220023 | 102 | 261 | 4.0 | 14.0 | 0.00 | 0.00 | 0.00 | 30 | 1011.4 |
| 20260905215815 | 102 | 201 | 7.0 | 14.0 | 0.00 | 0.00 | 0.00 | 27 | 1014.9 |
| 20260905215327 | 103 | 242 | 4.0 | 7.0 | 0.00 | 0.00 | 0.00 | 27 | 1014.8 |
| 20260905214813 | 102 | 345 | 2.0 | 6.0 | 0.00 | 0.00 | 0.00 | 27 | 1015.0 |
| 20260905214508 | 102 | 260 | 3.0 | 7.0 | 0.00 | 0.00 | 0.00 | 31 | 1011.5 |
| 20260905214324 | 102 | 360 | 3.0 | 6.0 | 0.00 | 0.00 | 0.00 | 27 | 1015.0 |
| 20260905213816 | 102 | 164 | 1.0 | 8.0 | 0.00 | 0.00 | 0.00 | 28 | 1015.1 |
| 20260905213347 | 102 | 309 | 2.0 | 8.0 | 0.00 | 0.00 | 0.00 | 27 | 1015.2 |
| 20260905213028 | 101 | 286 | 4.0 | 10.0 | 0.00 | 0.00 | 0.00 | 31 | 1011.8 |
| 20260905212813 | 101 | 318 | 2.0 | 10.0 | 0.00 | 0.00 | 0.00 | 27 | 1015.3 |
| 20260905212324 | 102 | 248 | 6.0 | 19.0 | 0.00 | 0.00 | 0.00 | 27 | 1015.3 |
| 20260905211832 | 102 | 246 | 5.0 | 15.0 | 0.00 | 0.00 | 0.00 | 28 | 1015.3 |
| 20260905211519 | 102 | 260 | 2.0 | 8.0 | 0.00 | 0.00 | 0.00 | 30 | 1011.9 |
| 20260905211321 | 103 | 13 | 3.0 | 8.0 | 0.00 | 0.00 | 0.00 | 26 | 1015.4 |
| 20260905210847 | 102 | 16 | 4.0 | 8.0 | 0.00 | 0.00 | 0.00 | 27 | 1015.6 |
| 20260905210318 | 102 | 271 | 3.0 | 6.0 | 0.00 | 0.00 | 0.00 | 27 | 1015.6 |
| 20260905210022 | 102 | 336 | 3.0 | 6.0 | 0.00 | 0.00 | 0.00 | 30 | 1012.2 |
| 20260905205824 | 102 | 17 | 3.0 | 6.0 | 0.00 | 0.00 | 0.00 | 27 | 1015.6 |
| 20260905205315 | 101 | 87 | 2.0 | 9.0 | 0.00 | 0.00 | 0.00 | 27 | 1015.6 |
| 20260905204822 | 102 | 299 | 5.0 | 9.0 | 0.00 | 0.00 | 0.00 | 27 | 1015.7 |
| 20260905204522 | 101 | 275 | 4.0 | 9.0 | 0.00 | 0.00 | 0.00 | 32 | 1012.4 |
| 20260905204317 | 101 | 234 | 5.0 | 8.0 | 0.00 | 0.00 | 0.00 | 28 | 1015.9 |
| 20260905203823 | 101 | 302 | 4.0 | 8.0 | 0.00 | 0.00 | 0.00 | 27 | 1015.9 |
| 20260905203314 | 101 | 205 | 3.0 | 8.0 | 0.00 | 0.00 | 0.00 | 27 | 1016.0 |
| 20260905203009 | 101 | 269 | 1.0 | 8.0 | 0.00 | 0.00 | 0.00 | 30 | 1012.7 |
| 20260905202822 | 102 | 295 | 4.0 | 8.0 | 0.00 | 0.00 | 0.00 | 27 | 1016.2 |
| 20260905202330 | 101 | 300 | 2.0 | 5.0 | 0.00 | 0.00 | 0.00 | 27 | 1016.2 |
| 20260905201816 | 101 | 355 | 1.0 | 5.0 | 0.00 | 0.00 | 0.00 | 28 | 1016.2 |
| 20260905201516 | 100 | 89 | 2.0 | 10.0 | 0.00 | 0.00 | 0.00 | 31 | 1012.8 |
| 20260905201327 | 100 | 360 | 1.0 | 10.0 | 0.00 | 0.00 | 0.00 | 28 | 1016.3 |
| 20260905200834 | 101 | 294 | 5.0 | 10.0 | 0.00 | 0.00 | 0.00 | 27 | 1016.4 |
| 20260905200325 | 101 | 251 | 2.0 | 6.0 | 0.00 | 0.00 | 0.00 | 28 | 1016.4 |
| 20260905200023 | 100 | 191 | 4.0 | 6.0 | 0.00 | 0.00 | 0.00 | 31 | 1013.0 |
| 20260905195815 | 101 | 180 | 2.0 | 5.0 | 0.00 | 0.00 | 0.00 | 28 | 1016.4 |
| 20260905195326 | 100 | 263 | 3.0 | 5.0 | 0.00 | 0.00 | 0.00 | 28 | 1016.5 |
| 20260905194813 | 101 | 199 | 0.0 | 3.0 | 0.00 | 0.00 | 0.00 | 28 | 1016.5 |
| 20260905194524 | 100 | 92 | 2.0 | 5.0 | 0.00 | 0.00 | 0.00 | 31 | 1013.1 |
| 20260905194323 | 100 | 171 | 1.0 | 5.0 | 0.00 | 0.00 | 0.00 | 27 | 1016.6 |
| 20260905193830 | 101 | 196 | 1.0 | 4.0 | 0.00 | 0.00 | 0.00 | 27 | 1016.7 |
| 20260905193341 | 100 | 298 | 2.0 | 4.0 | 0.00 | 0.00 | 0.00 | 28 | 1016.8 |
| 20260905193023 | 99 | 336 | 2.0 | 5.0 | 0.00 | 0.00 | 0.00 | 31 | 1013.4 |
| 20260905192847 | 100 | 333 | 2.0 | 4.0 | 0.00 | 0.00 | 0.00 | 27 | 1016.9 |
| 20260905192317 | 100 | 265 | 2.0 | 4.0 | 0.00 | 0.00 | 0.00 | 28 | 1016.9 |
| 20260905191825 | 99 | 289 | 2.0 | 9.0 | 0.00 | 0.00 | 0.00 | 28 | 1017.0 |
| 20260905191514 | 99 | 232 | 2.0 | 9.0 | 0.00 | 0.00 | 0.00 | 31 | 1013.5 |
| 20260905191316 | 100 | 217 | 4.0 | 9.0 | 0.00 | 0.00 | 0.00 | 27 | 1017.1 |
| 20260905190824 | 99 | 197 | 4.0 | 8.0 | 0.00 | 0.00 | 0.00 | 28 | 1017.1 |
| 20260905190320 | 99 | 257 | 3.0 | 7.0 | 0.00 | 0.00 | 0.00 | 28 | 1017.2 |
| 20260905190020 | 98 | 236 | 1.0 | 4.0 | 0.00 | 0.00 | 0.00 | 32 | 1013.7 |
| 20260905185826 | 98 | 265 | 0.0 | 3.0 | 0.00 | 0.00 | 0.00 | 27 | 1017.3 |
| 20260905185337 | 98 | 355 | 1.0 | 4.0 | 0.00 | 0.00 | 0.00 | 28 | 1017.4 |
| 20260905184843 | 98 | 192 | 2.0 | 5.0 | 0.00 | 0.00 | 0.00 | 28 | 1017.4 |
| 20260905184527 | 97 | 163 | 2.0 | 5.0 | 0.00 | 0.00 | 0.00 | 32 | 1014.0 |
| 20260905184313 | 97 | 263 | 2.0 | 5.0 | 0.00 | 0.00 | 0.00 | 28 | 1017.5 |
| 20260905183821 | 99 | 217 | 2.0 | 5.0 | 0.00 | 0.00 | 0.00 | 28 | 1017.5 |
| 20260905183332 | 98 | 293 | 2.0 | 4.0 | 0.00 | 0.00 | 0.00 | 29 | 1017.6 |
| 20260905183024 | 98 | 30 | 2.0 | 4.0 | 0.00 | 0.00 | 0.00 | 32 | 1014.2 |
| 20260905182818 | 98 | 202 | 1.0 | 4.0 | 0.00 | 0.00 | 0.00 | 29 | 1017.7 |
| 20260905182329 | 98 | 259 | 2.0 | 4.0 | 0.00 | 0.00 | 0.00 | 29 | 1017.7 |
| 20260905181816 | 98 | 257 | 2.0 | 4.0 | 0.00 | 0.00 | 0.00 | 29 | 1017.7 |
| 20260905181533 | 96 | 42 | 2.0 | 4.0 | 0.00 | 0.00 | 0.00 | 32 | 1014.3 |
| 20260905181347 | 97 | 32 | 1.0 | 3.0 | 0.00 | 0.00 | 0.00 | 29 | 1017.8 |
| 20260905180817 | 96 | 277 | 1.0 | 5.0 | 0.00 | 0.00 | 0.00 | 29 | 1017.9 |
| 20260905180328 | 97 | 212 | 2.0 | 5.0 | 0.00 | 0.00 | 0.00 | 29 | 1017.9 |
| 20260905180017 | 96 | 186 | 3.0 | 7.0 | 0.00 | 0.00 | 0.00 | 34 | 1014.5 |
| 20260905175815 | 96 | 216 | 2.0 | 7.0 | 0.00 | 0.00 | 0.00 | 31 | 1017.9 |
| 20260905175326 | 96 | 173 | 2.0 | 7.0 | 0.00 | 0.00 | 0.00 | 31 | 1017.9 |
| 20260905174853 | 96 | 179 | 1.0 | 4.0 | 0.00 | 0.00 | 0.00 | 29 | 1017.9 |
| 20260905174524 | 95 | 309 | 1.0 | 4.0 | 0.00 | 0.00 | 0.00 | 33 | 1014.5 |
| 20260905174323 | 96 | 212 | 2.0 | 4.0 | 0.00 | 0.00 | 0.00 | 31 | 1018.0 |
| 20260905173831 | 96 | 224 | 2.0 | 4.0 | 0.00 | 0.00 | 0.00 | 30 | 1017.9 |
| 20260905173322 | 96 | 331 | 1.0 | 3.0 | 0.00 | 0.00 | 0.00 | 29 | 1017.9 |
| 20260905173028 | 95 | 309 | 1.0 | 4.0 | 0.00 | 0.00 | 0.00 | 34 | 1014.4 |
| 20260905172829 | 95 | 331 | 1.0 | 4.0 | 0.00 | 0.00 | 0.00 | 30 | 1017.9 |
| 20260905172340 | 95 | 340 | 2.0 | 4.0 | 0.00 | 0.00 | 0.00 | 30 | 1017.9 |
| 20260905171827 | 95 | 360 | 1.0 | 2.0 | 0.00 | 0.00 | 0.00 | 29 | 1017.9 |
| 20260905171526 | 95 | 19 | 1.0 | 3.0 | 0.00 | 0.00 | 0.00 | 33 | 1014.5 |
| 20260905171342 | 96 | 336 | 1.0 | 5.0 | 0.00 | 0.00 | 0.00 | 29 | 1018.0 |
| 20260905170828 | 95 | 32 | 1.0 | 5.0 | 0.00 | 0.00 | 0.00 | 31 | 1017.9 |
| 20260905170319 | 93 | 124 | 1.0 | 2.0 | 0.00 | 0.00 | 0.00 | 33 | 1017.9 |
| 20260905170016 | 92 | 197 | 1.0 | 2.0 | 0.00 | 0.00 | 0.00 | 37 | 1014.5 |
| 20260905165827 | 93 | 191 | 1.0 | 2.0 | 0.00 | 0.00 | 0.00 | 33 | 1018.0 |
| 20260905165318 | 93 | 155 | 0.0 | 2.0 | 0.00 | 0.00 | 0.00 | 35 | 1018.0 |
| 20260905164824 | 92 | 261 | 1.0 | 4.0 | 0.00 | 0.00 | 0.00 | 34 | 1018.0 |
| 20260905164528 | 91 | 217 | 1.0 | 4.0 | 0.00 | 0.00 | 0.00 | 39 | 1014.5 |
| 20260905164315 | 92 | 259 | 1.0 | 4.0 | 0.00 | 0.00 | 0.00 | 34 | 1018.0 |
| 20260905163823 | 92 | 290 | 2.0 | 4.0 | 0.00 | 0.00 | 0.00 | 35 | 1018.0 |
| 20260905163314 | 92 | 278 | 1.0 | 3.0 | 0.00 | 0.00 | 0.00 | 34 | 1017.9 |
| 20260905163029 | 91 | 273 | 2.0 | 3.0 | 0.00 | 0.00 | 0.00 | 38 | 1014.4 |
| 20260905162841 | 92 | 274 | 1.0 | 2.0 | 0.00 | 0.00 | 0.00 | 34 | 1017.9 |
| 20260905162315 | 92 | 45 | 0.0 | 3.0 | 0.00 | 0.00 | 0.00 | 34 | 1017.9 |
| 20260905161823 | 91 | 282 | 1.0 | 3.0 | 0.00 | 0.00 | 0.00 | 34 | 1017.9 |
| 20260905161530 | 91 | 288 | 0.0 | 3.0 | 0.00 | 0.00 | 0.00 | 38 | 1014.5 |
| 20260905161314 | 91 | 355 | 1.0 | 3.0 | 0.00 | 0.00 | 0.00 | 34 | 1018.0 |
| 20260905160821 | 91 | 136 | 1.0 | 2.0 | 0.00 | 0.00 | 0.00 | 36 | 1018.0 |
| 20260905160352 | 91 | 278 | 1.0 | 3.0 | 0.00 | 0.00 | 0.00 | 36 | 1018.0 |
| 20260905160039 | 91 | 101 | 0.0 | 3.0 | 0.00 | 0.00 | 0.00 | 39 | 1014.5 |
| 20260905155817 | 91 | 101 | 1.0 | 3.0 | 0.00 | 0.00 | 0.00 | 38 | 1017.9 |
| 20260905155328 | 91 | 64 | 2.0 | 3.0 | 0.00 | 0.00 | 0.00 | 38 | 1017.8 |
| 20260905154815 | 90 | 88 | 1.0 | 3.0 | 0.00 | 0.00 | 0.00 | 39 | 1017.7 |
| 20260905154518 | 89 | 136 | 0.0 | 3.0 | 0.00 | 0.00 | 0.00 | 43 | 1014.3 |
| 20260905154326 | 89 | 82 | 1.0 | 3.0 | 0.00 | 0.00 | 0.00 | 39 | 1017.8 |
| 20260905153813 | 88 | 113 | 0.0 | 2.0 | 0.00 | 0.00 | 0.00 | 44 | 1017.7 |
| 20260905153344 | 88 | 118 | 0.0 | 2.0 | 0.00 | 0.00 | 0.00 | 44 | 1017.6 |
| 20260905153024 | 87 | 118 | 0.0 | 2.0 | 0.00 | 0.00 | 0.00 | 47 | 1014.3 |
| 20260905152850 | 87 | 118 | 0.0 | 2.0 | 0.00 | 0.00 | 0.00 | 44 | 1017.7 |
| 20260905152340 | 88 | 118 | 0.0 | 2.0 | 0.00 | 0.00 | 0.00 | 44 | 1017.7 |
| 20260905151830 | 88 | 121 | 0.0 | 2.0 | 0.00 | 0.00 | 0.00 | 44 | 1017.5 |
| 20260905151529 | 88 | 91 | 0.0 | 2.0 | 0.00 | 0.00 | 0.00 | 48 | 1014.1 |
| 20260905151321 | 88 | 91 | 0.0 | 2.0 | 0.00 | 0.00 | 0.00 | 44 | 1017.5 |
| 20260905150828 | 87 | 96 | 0.0 | 2.0 | 0.00 | 0.00 | 0.00 | 46 | 1017.5 |
| 20260905150320 | 87 | 96 | 1.0 | 2.0 | 0.00 | 0.00 | 0.00 | 47 | 1017.5 |
| 20260905150032 | 86 | 93 | 0.0 | 2.0 | 0.00 | 0.00 | 0.00 | 51 | 1014.1 |
| 20260905145848 | 86 | 116 | 1.0 | 2.0 | 0.00 | 0.00 | 0.00 | 47 | 1017.5 |
| 20260905145316 | 85 | 93 | 1.0 | 2.0 | 0.00 | 0.00 | 0.00 | 49 | 1017.5 |
| 20260905144823 | 84 | 96 | 0.0 | 1.0 | 0.00 | 0.00 | 0.00 | 50 | 1017.5 |
| 20260905144535 | 83 | 91 | 1.0 | 1.0 | 0.00 | 0.00 | 0.00 | 55 | 1014.1 |
| 20260905144314 | 83 | 87 | 1.0 | 1.0 | 0.00 | 0.00 | 0.00 | 52 | 1017.5 |
| 20260905143821 | 83 | 90 | 0.0 | 2.0 | 0.00 | 0.00 | 0.00 | 54 | 1017.5 |
| 20260905143352 | 83 | 99 | 0.0 | 2.0 | 0.00 | 0.00 | 0.00 | 53 | 1017.5 |
| 20260905143025 | 82 | 100 | 0.0 | 2.0 | 0.00 | 0.00 | 0.00 | 56 | 1014.0 |
| 20260905142817 | 83 | 100 | 0.0 | 2.0 | 0.00 | 0.00 | 0.00 | 52 | 1017.5 |
| 20260905142347 | 83 | 100 | 0.0 | 2.0 | 0.00 | 0.00 | 0.00 | 51 | 1017.4 |
| 20260905141817 | 83 | 100 | 0.0 | 4.0 | 0.00 | 0.00 | 0.00 | 51 | 1017.4 |
| 20260905141526 | 82 | 100 | 1.0 | 4.0 | 0.00 | 0.00 | 0.00 | 53 | 1014.0 |
| 20260905141327 | 83 | 88 | 1.0 | 4.0 | 0.00 | 0.00 | 0.00 | 50 | 1017.3 |
| 20260905140832 | 82 | 86 | 1.0 | 3.0 | 0.00 | 0.00 | 0.00 | 51 | 1017.3 |
| 20260905140322 | 81 | 81 | 2.0 | 3.0 | 0.00 | 0.00 | 0.00 | 53 | 1017.3 |
| 20260905140031 | 80 | 95 | 1.0 | 2.0 | 0.00 | 0.00 | 0.00 | 59 | 1013.8 |
| 20260905135829 | 80 | 92 | 1.0 | 2.0 | 0.00 | 0.00 | 0.00 | 56 | 1017.2 |
| 20260905135319 | 80 | 90 | 1.0 | 2.0 | 0.00 | 0.00 | 0.00 | 58 | 1017.2 |
| 20260905134846 | 79 | 90 | 0.0 | 1.0 | 0.00 | 0.00 | 0.00 | 58 | 1017.1 |
| 20260905134528 | 79 | 90 | 0.0 | 1.0 | 0.00 | 0.00 | 0.00 | 62 | 1013.6 |
| 20260905134314 | 79 | 90 | 0.0 | 1.0 | 0.00 | 0.00 | 0.00 | 58 | 1017.0 |
| 20260905133821 | 79 | 90 | 0.0 | 0.0 | 0.00 | 0.00 | 0.00 | 56 | 1016.9 |
| 20260905133332 | 79 | 90 | 0.0 | 2.0 | 0.00 | 0.00 | 0.00 | 57 | 1016.9 |
| 20260905133030 | 79 | 90 | 0.0 | 2.0 | 0.00 | 0.00 | 0.00 | 58 | 1013.3 |
| 20260905132823 | 79 | 90 | 0.0 | 2.0 | 0.00 | 0.00 | 0.00 | 56 | 1016.8 |
| 20260905132314 | 79 | 90 | 0.0 | 2.0 | 0.00 | 0.00 | 0.00 | 55 | 1016.7 |
| 20260905131821 | 79 | 90 | 0.0 | 2.0 | 0.00 | 0.00 | 0.00 | 55 | 1016.6 |
| 20260905131541 | 78 | 90 | 0.0 | 2.0 | 0.00 | 0.00 | 0.00 | 59 | 1013.1 |
| 20260905131332 | 79 | 90 | 0.0 | 2.0 | 0.00 | 0.00 | 0.00 | 56 | 1016.6 |
| 20260905130837 | 79 | 90 | 0.0 | 2.0 | 0.00 | 0.00 | 0.00 | 56 | 1016.5 |
| 20260905130328 | 79 | 90 | 0.0 | 2.0 | 0.00 | 0.00 | 0.00 | 55 | 1016.6 |
| 20260905130028 | 79 | 90 | 0.0 | 2.0 | 0.00 | 0.00 | 0.00 | 57 | 1013.0 |
| 20260905125814 | 79 | 90 | 1.0 | 2.0 | 0.00 | 0.00 | 0.00 | 53 | 1016.5 |
| 20260905125325 | 79 | 93 | 1.0 | 2.0 | 0.00 | 0.00 | 0.00 | 54 | 1016.5 |
| 20260905124831 | 79 | 84 | 0.0 | 2.0 | 0.00 | 0.00 | 0.00 | 55 | 1016.5 |
| 20260905124512 | 78 | 92 | 0.0 | 2.0 | 0.00 | 0.00 | 0.00 | 58 | 1013.0 |
| 20260905124322 | 79 | 92 | 0.0 | 2.0 | 0.00 | 0.00 | 0.00 | 55 | 1016.5 |
| 20260905123813 | 79 | 92 | 0.0 | 2.0 | 0.00 | 0.00 | 0.00 | 54 | 1016.5 |
| 20260905123324 | 80 | 92 | 0.0 | 2.0 | 0.00 | 0.00 | 0.00 | 54 | 1016.4 |
| 20260905123018 | 79 | 90 | 0.0 | 2.0 | 0.00 | 0.00 | 0.00 | 57 | 1012.8 |
| 20260905122832 | 80 | 90 | 1.0 | 2.0 | 0.00 | 0.00 | 0.00 | 54 | 1016.4 |
| 20260905122323 | 80 | 92 | 0.0 | 3.0 | 0.00 | 0.00 | 0.00 | 53 | 1016.4 |
| 20260905121830 | 80 | 97 | 1.0 | 3.0 | 0.00 | 0.00 | 0.00 | 52 | 1016.4 |
| 20260905121523 | 79 | 73 | 1.0 | 2.0 | 0.00 | 0.00 | 0.00 | 56 | 1012.8 |
| 20260905121341 | 80 | 72 | 1.0 | 2.0 | 0.00 | 0.00 | 0.00 | 53 | 1016.4 |
| 20260905120827 | 79 | 88 | 0.0 | 1.0 | 0.00 | 0.00 | 0.00 | 55 | 1016.3 |
| 20260905120318 | 79 | 86 | 0.0 | 1.0 | 0.00 | 0.00 | 0.00 | 56 | 1016.2 |
| 20260905120027 | 79 | 86 | 0.0 | 1.0 | 0.00 | 0.00 | 0.00 | 59 | 1012.7 |
| 20260905115825 | 79 | 86 | 0.0 | 1.0 | 0.00 | 0.00 | 0.00 | 56 | 1016.2 |
| 20260905115336 | 80 | 86 | 0.0 | 2.0 | 0.00 | 0.00 | 0.00 | 54 | 1016.2 |
| 20260905114826 | 80 | 88 | 1.0 | 2.0 | 0.00 | 0.00 | 0.00 | 53 | 1016.2 |
| 20260905114540 | 79 | 88 | 1.0 | 2.0 | 0.00 | 0.00 | 0.00 | 57 | 1012.7 |
| 20260905114316 | 80 | 86 | 1.0 | 2.0 | 0.00 | 0.00 | 0.00 | 56 | 1016.2 |
| 20260905113823 | 79 | 64 | 1.0 | 2.0 | 0.00 | 0.00 | 0.00 | 58 | 1016.2 |
| 20260905113314 | 79 | 263 | 0.0 | 2.0 | 0.00 | 0.00 | 0.00 | 57 | 1016.1 |
| 20260905113027 | 79 | 261 | 0.0 | 2.0 | 0.00 | 0.00 | 0.00 | 61 | 1012.6 |
| 20260905112821 | 79 | 261 | 1.0 | 2.0 | 0.00 | 0.00 | 0.00 | 59 | 1016.2 |
| 20260905112332 | 79 | 261 | 0.0 | 0.0 | 0.00 | 0.00 | 0.00 | 60 | 1016.2 |
| 20260905111819 | 79 | 261 | 0.0 | 0.0 | 0.00 | 0.00 | 0.00 | 58 | 1016.1 |
| 20260905111524 | 79 | 261 | 0.0 | 0.0 | 0.00 | 0.00 | 0.00 | 61 | 1012.5 |
| 20260905111330 | 79 | 261 | 0.0 | 0.0 | 0.00 | 0.00 | 0.00 | 58 | 1016.0 |
| 20260905110816 | 80 | 261 | 0.0 | 0.0 | 0.00 | 0.00 | 0.00 | 55 | 1016.0 |
| 20260905110332 | 80 | 261 | 0.0 | 0.0 | 0.00 | 0.00 | 0.00 | 56 | 1016.0 |
| 20260905110025 | 79 | 261 | 0.0 | 2.0 | 0.00 | 0.00 | 0.00 | 60 | 1012.5 |
| 20260905105819 | 80 | 261 | 0.0 | 2.0 | 0.00 | 0.00 | 0.00 | 57 | 1016.0 |
| 20260905105330 | 80 | 261 | 0.0 | 2.0 | 0.00 | 0.00 | 0.00 | 57 | 1015.9 |
| 20260905104817 | 80 | 261 | 0.0 | 2.0 | 0.00 | 0.00 | 0.00 | 58 | 1016.0 |
| 20260905104532 | 79 | 261 | 0.0 | 1.0 | 0.00 | 0.00 | 0.00 | 61 | 1012.4 |
| 20260905104328 | 80 | 261 | 0.0 | 0.0 | 0.00 | 0.00 | 0.00 | 57 | 1015.9 |
| 20260905103816 | 80 | 261 | 0.0 | 0.0 | 0.00 | 0.00 | 0.00 | 56 | 1015.8 |
| 20260905103327 | 80 | 261 | 0.0 | 0.0 | 0.00 | 0.00 | 0.00 | 55 | 1015.9 |
| 20260905103030 | 80 | 261 | 0.0 | 2.0 | 0.00 | 0.00 | 0.00 | 57 | 1012.3 |
| 20260905102814 | 80 | 261 | 0.0 | 2.0 | 0.00 | 0.00 | 0.00 | 54 | 1015.7 |
| 20260905102325 | 81 | 261 | 0.0 | 2.0 | 0.00 | 0.00 | 0.00 | 53 | 1015.7 |
| 20260905101836 | 81 | 261 | 0.0 | 2.0 | 0.00 | 0.00 | 0.00 | 53 | 1015.7 |
| 20260905101530 | 81 | 261 | 0.0 | 2.0 | 0.00 | 0.00 | 0.00 | 56 | 1012.3 |
| 20260905101326 | 81 | 261 | 0.0 | 2.0 | 0.00 | 0.00 | 0.00 | 52 | 1015.7 |
| 20260905100813 | 81 | 261 | 0.0 | 0.0 | 0.00 | 0.00 | 0.00 | 53 | 1015.8 |
| 20260905100324 | 82 | 261 | 0.0 | 0.0 | 0.00 | 0.00 | 0.00 | 51 | 1015.8 |
| 20260905100024 | 81 | 261 | 0.0 | 0.0 | 0.00 | 0.00 | 0.00 | 55 | 1012.2 |
| 20260905095831 | 82 | 261 | 0.0 | 0.0 | 0.00 | 0.00 | 0.00 | 52 | 1015.8 |
| 20260905095321 | 82 | 261 | 0.0 | 0.0 | 0.00 | 0.00 | 0.00 | 53 | 1015.7 |
| 20260905094828 | 81 | 261 | 0.0 | 2.0 | 0.00 | 0.00 | 0.00 | 52 | 1015.7 |
| 20260905094528 | 81 | 261 | 0.0 | 2.0 | 0.00 | 0.00 | 0.00 | 57 | 1012.2 |
| 20260905094319 | 82 | 261 | 0.0 | 2.0 | 0.00 | 0.00 | 0.00 | 53 | 1015.8 |
| 20260905093826 | 82 | 261 | 0.0 | 2.0 | 0.00 | 0.00 | 0.00 | 55 | 1015.8 |
| 20260905093317 | 81 | 261 | 0.0 | 2.0 | 0.00 | 0.00 | 0.00 | 55 | 1015.7 |
| 20260905093036 | 81 | 261 | 0.0 | 2.0 | 0.00 | 0.00 | 0.00 | 58 | 1012.2 |
| 20260905092823 | 81 | 261 | 0.0 | 2.0 | 0.00 | 0.00 | 0.00 | 57 | 1015.7 |
| 20260905092318 | 82 | 261 | 0.0 | 2.0 | 0.00 | 0.00 | 0.00 | 58 | 1015.8 |
| 20260905091825 | 82 | 261 | 0.0 | 0.0 | 0.00 | 0.00 | 0.00 | 57 | 1015.8 |
| 20260905091532 | 81 | 261 | 0.0 | 0.0 | 0.00 | 0.00 | 0.00 | 59 | 1012.3 |
| 20260905091316 | 82 | 261 | 0.0 | 0.0 | 0.00 | 0.00 | 0.00 | 54 | 1015.6 |
| 20260905090823 | 82 | 261 | 0.0 | 0.0 | 0.00 | 0.00 | 0.00 | 54 | 1015.6 |
| 20260905090335 | 82 | 261 | 0.0 | 0.0 | 0.00 | 0.00 | 0.00 | 52 | 1015.7 |
| 20260905090023 | 82 | 261 | 0.0 | 0.0 | 0.00 | 0.00 | 0.00 | 56 | 1012.1 |
| 20260905085842 | 83 | 261 | 0.0 | 0.0 | 0.00 | 0.00 | 0.00 | 53 | 1015.7 |
| 20260905085332 | 83 | 261 | 0.0 | 2.0 | 0.00 | 0.00 | 0.00 | 52 | 1015.6 |
| 20260905084819 | 82 | 261 | 0.0 | 2.0 | 0.00 | 0.00 | 0.00 | 53 | 1015.7 |
| 20260905084526 | 82 | 261 | 0.0 | 2.0 | 0.00 | 0.00 | 0.00 | 57 | 1012.2 |
| 20260905084330 | 82 | 261 | 0.0 | 2.0 | 0.00 | 0.00 | 0.00 | 53 | 1015.8 |
| 20260905083817 | 82 | 261 | 0.0 | 0.0 | 0.00 | 0.00 | 0.00 | 53 | 1015.8 |
| 20260905083332 | 82 | 261 | 0.0 | 0.0 | 0.00 | 0.00 | 0.00 | 53 | 1015.8 |
| 20260905083036 | 82 | 261 | 0.0 | 0.0 | 0.00 | 0.00 | 0.00 | 57 | 1012.3 |
| 20260905082840 | 82 | 261 | 0.0 | 0.0 | 0.00 | 0.00 | 0.00 | 53 | 1015.8 |
| 20260905082350 | 82 | 261 | 0.0 | 0.0 | 0.00 | 0.00 | 0.00 | 53 | 1015.8 |
| 20260905081816 | 83 | 261 | 0.0 | 1.0 | 0.00 | 0.00 | 0.00 | 52 | 1015.6 |
| 20260905081532 | 82 | 261 | 0.0 | 2.0 | 0.00 | 0.00 | 0.00 | 56 | 1012.3 |
| 20260905081327 | 83 | 261 | 0.0 | 2.0 | 0.00 | 0.00 | 0.00 | 53 | 1015.7 |
| 20260905080814 | 83 | 261 | 0.0 | 2.0 | 0.00 | 0.00 | 0.00 | 52 | 1015.7 |
| 20260905080325 | 83 | 261 | 0.0 | 2.0 | 0.00 | 0.00 | 0.00 | 53 | 1015.8 |
| 20260905080041 | 82 | 261 | 0.0 | 2.0 | 0.00 | 0.00 | 0.00 | 57 | 1012.4 |
| 20260905075832 | 83 | 261 | 0.0 | 2.0 | 0.00 | 0.00 | 0.00 | 55 | 1015.7 |
| 20260905075323 | 83 | 261 | 0.0 | 2.0 | 0.00 | 0.00 | 0.00 | 54 | 1015.7 |
| 20260905074830 | 83 | 261 | 0.0 | 2.0 | 0.00 | 0.00 | 0.00 | 53 | 1015.7 |
| 20260905074522 | 83 | 261 | 0.0 | 2.0 | 0.00 | 0.00 | 0.00 | 56 | 1012.2 |
| 20260905074341 | 83 | 261 | 0.0 | 2.0 | 0.00 | 0.00 | 0.00 | 52 | 1015.6 |
| 20260905073831 | 83 | 261 | 0.0 | 2.0 | 0.00 | 0.00 | 0.00 | 52 | 1015.7 |
| 20260905073322 | 83 | 261 | 0.0 | 2.0 | 0.00 | 0.00 | 0.00 | 51 | 1015.6 |
| 20260905073036 | 83 | 261 | 0.0 | 2.0 | 0.00 | 0.00 | 0.00 | 53 | 1012.2 |
| 20260905072829 | 83 | 261 | 0.0 | 2.0 | 0.00 | 0.00 | 0.00 | 49 | 1015.6 |
| 20260905072320 | 84 | 261 | 0.0 | 0.0 | 0.00 | 0.00 | 0.00 | 48 | 1015.6 |
| 20260905071828 | 84 | 261 | 0.0 | 0.0 | 0.00 | 0.00 | 0.00 | 47 | 1015.5 |
| 20260905071511 | 84 | 261 | 0.0 | 0.0 | 0.00 | 0.00 | 0.00 | 52 | 1012.1 |
| 20260905071339 | 84 | 261 | 0.0 | 0.0 | 0.00 | 0.00 | 0.00 | 47 | 1015.5 |
| 20260905070845 | 84 | 261 | 0.0 | 0.0 | 0.00 | 0.00 | 0.00 | 49 | 1015.5 |
| 20260905070336 | 85 | 261 | 0.0 | 2.0 | 0.00 | 0.00 | 0.00 | 48 | 1015.6 |
| 20260905070017 | 84 | 261 | 0.0 | 0.0 | 0.00 | 0.00 | 0.00 | 52 | 1012.2 |
| 20260905065823 | 85 | 261 | 0.0 | 0.0 | 0.00 | 0.00 | 0.00 | 48 | 1015.6 |
| 20260905065314 | 85 | 261 | 0.0 | 2.0 | 0.00 | 0.00 | 0.00 | 48 | 1015.5 |
| 20260905064822 | 85 | 261 | 0.0 | 2.0 | 0.00 | 0.00 | 0.00 | 47 | 1015.5 |
| 20260905064528 | 84 | 261 | 0.0 | 2.0 | 0.00 | 0.00 | 0.00 | 50 | 1012.1 |
| 20260905064317 | 85 | 261 | 0.0 | 0.0 | 0.00 | 0.00 | 0.00 | 47 | 1015.5 |
| 20260905063825 | 85 | 261 | 0.0 | 0.0 | 0.00 | 0.00 | 0.00 | 47 | 1015.5 |
| 20260905063316 | 85 | 261 | 0.0 | 0.0 | 0.00 | 0.00 | 0.00 | 46 | 1015.4 |
| 20260905063004 | 85 | 261 | 0.0 | 0.0 | 0.00 | 0.00 | 0.00 | 50 | 1011.9 |
| 20260905062823 | 85 | 261 | 0.0 | 0.0 | 0.00 | 0.00 | 0.00 | 46 | 1015.4 |
| 20260905062314 | 85 | 261 | 0.0 | 0.0 | 0.00 | 0.00 | 0.00 | 47 | 1015.4 |
| 20260905061841 | 85 | 261 | 0.0 | 0.0 | 0.00 | 0.00 | 0.00 | 47 | 1015.4 |
| 20260905061508 | 85 | 261 | 0.0 | 0.0 | 0.00 | 0.00 | 0.00 | 50 | 1011.8 |
| 20260905061329 | 86 | 261 | 0.0 | 0.0 | 0.00 | 0.00 | 0.00 | 47 | 1015.3 |
| 20260905060816 | 86 | 261 | 0.0 | 0.0 | 0.00 | 0.00 | 0.00 | 46 | 1015.3 |
| 20260905060327 | 86 | 261 | 0.0 | 2.0 | 0.00 | 0.00 | 0.00 | 45 | 1015.3 |
| 20260905060022 | 86 | 261 | 0.0 | 2.0 | 0.00 | 0.00 | 0.00 | 48 | 1011.8 |
| 20260905055835 | 86 | 261 | 0.0 | 2.0 | 0.00 | 0.00 | 0.00 | 44 | 1015.2 |
| 20260905055324 | 87 | 261 | 0.0 | 2.0 | 0.00 | 0.00 | 0.00 | 42 | 1015.2 |
| 20260905054815 | 87 | 261 | 0.0 | 2.0 | 0.00 | 0.00 | 0.00 | 41 | 1015.2 |
| 20260905054519 | 87 | 261 | 0.0 | 2.0 | 0.00 | 0.00 | 0.00 | 45 | 1011.7 |
| 20260905054326 | 87 | 261 | 0.0 | 2.0 | 0.00 | 0.00 | 0.00 | 42 | 1015.2 |
| 20260905053833 | 87 | 254 | 0.0 | 0.0 | 0.00 | 0.00 | 0.00 | 42 | 1015.2 |
| 20260905053324 | 87 | 254 | 0.0 | 0.0 | 0.00 | 0.00 | 0.00 | 41 | 1015.2 |
| 20260905053030 | 87 | 254 | 0.0 | 0.0 | 0.00 | 0.00 | 0.00 | 44 | 1011.7 |
| 20260905052831 | 88 | 254 | 0.0 | 0.0 | 0.00 | 0.00 | 0.00 | 41 | 1015.1 |
| 20260905052342 | 88 | 254 | 0.0 | 0.0 | 0.00 | 0.00 | 0.00 | 40 | 1015.1 |
| 20260905051829 | 88 | 254 | 0.0 | 0.0 | 0.00 | 0.00 | 0.00 | 39 | 1015.1 |
| 20260905051504 | 88 | 254 | 0.0 | 0.0 | 0.00 | 0.00 | 0.00 | 42 | 1011.5 |
| 20260905051340 | 89 | 254 | 0.0 | 0.0 | 0.00 | 0.00 | 0.00 | 39 | 1015.1 |
| 20260905050826 | 89 | 254 | 0.0 | 0.0 | 0.00 | 0.00 | 0.00 | 38 | 1015.0 |
| 20260905050318 | 90 | 254 | 0.0 | 0.0 | 0.00 | 0.00 | 0.00 | 37 | 1015.0 |
| 20260905050010 | 89 | 254 | 0.0 | 2.0 | 0.00 | 0.00 | 0.00 | 39 | 1011.6 |
| 20260905045825 | 90 | 254 | 0.0 | 2.0 | 0.00 | 0.00 | 0.00 | 35 | 1014.9 |
| 20260905045340 | 91 | 254 | 0.0 | 2.0 | 0.00 | 0.00 | 0.00 | 34 | 1014.8 |
| 20260905044825 | 92 | 254 | 0.0 | 2.0 | 0.00 | 0.00 | 0.00 | 34 | 1014.9 |
| 20260905044518 | 92 | 254 | 0.0 | 2.0 | 0.00 | 0.00 | 0.00 | 36 | 1011.5 |
| 20260905044316 | 92 | 254 | 0.0 | 2.0 | 0.00 | 0.00 | 0.00 | 32 | 1014.9 |
| 20260905043823 | 93 | 254 | 0.0 | 2.0 | 0.00 | 0.00 | 0.00 | 32 | 1014.8 |
| 20260905043333 | 93 | 260 | 1.0 | 2.0 | 0.00 | 0.00 | 0.00 | 31 | 1014.8 |
| 20260905043023 | 93 | 260 | 1.0 | 2.0 | 0.00 | 0.00 | 0.00 | 35 | 1011.4 |
| 20260905042819 | 93 | 270 | 0.0 | 2.0 | 0.00 | 0.00 | 0.00 | 31 | 1014.8 |
| 20260905042331 | 94 | 266 | 0.0 | 2.0 | 0.00 | 0.00 | 0.00 | 31 | 1014.8 |
| 20260905041818 | 94 | 282 | 0.0 | 4.0 | 0.00 | 0.00 | 0.00 | 31 | 1014.8 |
| 20260905041530 | 94 | 282 | 1.0 | 4.0 | 0.00 | 0.00 | 0.00 | 35 | 1011.4 |
| 20260905041329 | 94 | 267 | 1.0 | 4.0 | 0.00 | 0.00 | 0.00 | 31 | 1014.7 |
| 20260905040816 | 94 | 286 | 1.0 | 4.0 | 0.00 | 0.00 | 0.00 | 30 | 1014.7 |
| 20260905040325 | 94 | 282 | 1.0 | 4.0 | 0.00 | 0.00 | 0.00 | 33 | 1014.6 |
| 20260905040018 | 94 | 257 | 1.0 | 4.0 | 0.00 | 0.00 | 0.00 | 36 | 1011.2 |
| 20260905035816 | 94 | 265 | 0.0 | 4.0 | 0.00 | 0.00 | 0.00 | 33 | 1014.6 |
| 20260905035327 | 94 | 238 | 1.0 | 2.0 | 0.00 | 0.00 | 0.00 | 35 | 1014.6 |
| 20260905034814 | 94 | 226 | 1.0 | 2.0 | 0.00 | 0.00 | 0.00 | 35 | 1014.5 |
| 20260905034516 | 94 | 265 | 1.0 | 4.0 | 0.00 | 0.00 | 0.00 | 38 | 1011.1 |
| 20260905034346 | 95 | 263 | 1.0 | 4.0 | 0.00 | 0.00 | 0.00 | 35 | 1014.5 |
| 20260905033832 | 94 | 261 | 2.0 | 4.0 | 0.00 | 0.00 | 0.00 | 35 | 1014.4 |
| 20260905033343 | 94 | 297 | 3.0 | 4.0 | 0.00 | 0.00 | 0.00 | 36 | 1014.4 |
| 20260905033020 | 93 | 254 | 1.0 | 4.0 | 0.00 | 0.00 | 0.00 | 1010.9 | |
| 20260905032830 | 93 | 343 | 0.0 | 2.0 | 0.00 | 0.00 | 0.00 | 39 | 1014.2 |
| 20260905032320 | 93 | 325 | 0.0 | 2.0 | 0.00 | 0.00 | 0.00 | 39 | 1014.2 |
| 20260905031828 | 93 | 325 | 0.0 | 2.0 | 0.00 | 0.00 | 0.00 | 39 | 1014.1 |
| 20260905031531 | 93 | 341 | 0.0 | 2.0 | 0.00 | 0.00 | 0.00 | 43 | 1010.6 |
| 20260905031318 | 94 | 341 | 0.0 | 2.0 | 0.00 | 0.00 | 0.00 | 39 | 1014.0 |
| 20260905030830 | 93 | 341 | 0.0 | 2.0 | 0.00 | 0.00 | 0.00 | 39 | 1013.9 |
| 20260905030322 | 93 | 341 | 0.0 | 0.0 | 0.00 | 0.00 | 0.00 | 37 | 1013.8 |
| 20260905030036 | 93 | 341 | 0.0 | 0.0 | 0.00 | 0.00 | 0.00 | 42 | 1010.3 |
| 20260905025829 | 93 | 341 | 0.0 | 0.0 | 0.00 | 0.00 | 0.00 | 39 | 1013.7 |
| 20260905025319 | 93 | 341 | 0.0 | 0.0 | 0.00 | 0.00 | 0.00 | 39 | 1013.7 |
| 20260905024827 | 94 | 341 | 0.0 | 0.0 | 0.00 | 0.00 | 0.00 | 37 | 1013.5 |
| 20260905024526 | 93 | 341 | 0.0 | 0.0 | 0.00 | 0.00 | 0.00 | 39 | 1010.1 |
| 20260905024318 | 94 | 340 | 0.0 | 0.0 | 0.00 | 0.00 | 0.00 | 36 | 1013.5 |
| 20260905023826 | 94 | 341 | 0.0 | 0.0 | 0.00 | 0.00 | 0.00 | 37 | 1013.5 |
| 20260905023316 | 94 | 341 | 0.0 | 0.0 | 0.00 | 0.00 | 0.00 | 37 | 1013.4 |
| 20260905023016 | 93 | 341 | 0.0 | 0.0 | 0.00 | 0.00 | 0.00 | 40 | 1009.9 |
| 20260905022822 | 94 | 341 | 0.0 | 2.0 | 0.00 | 0.00 | 0.00 | 36 | 1013.4 |
| 20260905022333 | 94 | 341 | 0.0 | 2.0 | 0.00 | 0.00 | 0.00 | 36 | 1013.3 |
| 20260905021824 | 94 | 341 | 0.0 | 2.0 | 0.00 | 0.00 | 0.00 | 36 | 1013.3 |
| 20260905021528 | 94 | 341 | 0.0 | 2.0 | 0.00 | 0.00 | 0.00 | 39 | 1009.8 |
| 20260905021316 | 94 | 341 | 0.0 | 2.0 | 0.00 | 0.00 | 0.00 | 35 | 1013.3 |
| 20260905020822 | 95 | 341 | 0.0 | 2.0 | 0.00 | 0.00 | 0.00 | 34 | 1013.2 |
| 20260905020333 | 95 | 341 | 0.0 | 2.0 | 0.00 | 0.00 | 0.00 | 34 | 1013.3 |
| 20260905020051 | 95 | 341 | 0.0 | 2.0 | 0.00 | 0.00 | 0.00 | 38 | 1009.8 |
| 20260905015819 | 96 | 341 | 0.0 | 2.0 | 0.00 | 0.34 | 0.00 | 34 | 1013.2 |
| 20260905015331 | 96 | 341 | 0.0 | 2.0 | 0.00 | 0.34 | 0.00 | 33 | 1013.2 |
| 20260905014818 | 96 | 341 | 0.0 | 2.0 | 0.00 | 0.34 | 0.00 | 33 | 1013.2 |
| 20260905014509 | 96 | 341 | 0.0 | 2.0 | 0.00 | 0.00 | 0.00 | 35 | 1009.7 |
| 20260905014329 | 97 | 341 | 1.0 | 2.0 | 0.00 | 0.34 | 0.00 | 31 | 1013.2 |
| 20260905013816 | 97 | 317 | 0.0 | 1.0 | 0.00 | 0.34 | 0.00 | 31 | 1013.2 |
| 20260905013331 | 98 | 317 | 0.0 | 2.0 | 0.00 | 0.34 | 0.00 | 30 | 1013.1 |
| 20260905013017 | 97 | 317 | 0.0 | 2.0 | 0.00 | 0.01 | 0.00 | 34 | 1009.7 |
| 20260905012819 | 98 | 317 | 0.0 | 1.0 | 0.00 | 0.34 | 0.00 | 30 | 1013.1 |
| 20260905012350 | 98 | 315 | 1.0 | 1.0 | 0.00 | 0.34 | 0.00 | 30 | 1013.1 |
| 20260905011814 | 98 | 348 | 0.0 | 2.0 | 0.00 | 0.34 | 0.00 | 29 | 1013.0 |
| 20260905011519 | 98 | 344 | 0.0 | 2.0 | 0.00 | 0.31 | 0.00 | 33 | 1009.6 |
| 20260905011324 | 98 | 339 | 1.0 | 2.0 | 0.00 | 0.34 | 0.00 | 29 | 1013.0 |
| 20260905010829 | 98 | 342 | 1.0 | 2.0 | 0.00 | 0.34 | 0.00 | 29 | 1013.0 |
| 20260905010339 | 99 | 298 | 1.0 | 2.0 | 0.00 | 0.34 | 0.00 | 28 | 1013.0 |
| 20260905010026 | 98 | 263 | 1.0 | 3.0 | 0.00 | 0.34 | 0.00 | 32 | 1009.6 |
| 20260905005823 | 99 | 260 | 0.0 | 3.0 | 0.00 | 0.34 | 0.00 | 29 | 1013.0 |
| 20260905005332 | 98 | 213 | 0.0 | 2.0 | 0.00 | 0.34 | 0.00 | 29 | 1013.0 |
| 20260905004817 | 99 | 252 | 0.0 | 6.0 | 0.00 | 0.34 | 0.00 | 29 | 1013.0 |
| 20260905004528 | 98 | 247 | 1.0 | 6.0 | 0.00 | 0.34 | 0.00 | 32 | 1009.6 |
| 20260905004326 | 99 | 246 | 2.0 | 6.0 | 0.00 | 0.34 | 0.00 | 28 | 1013.1 |
| 20260905003815 | 99 | 258 | 2.0 | 4.0 | 0.00 | 0.34 | 0.00 | 27 | 1013.1 |
| 20260905003324 | 100 | 229 | 1.0 | 5.0 | 0.00 | 0.34 | 0.00 | 27 | 1013.1 |
| 20260905003009 | 100 | 273 | 2.0 | 5.0 | 0.00 | 0.34 | 0.00 | 31 | 1009.7 |
| 20260905002829 | 101 | 196 | 2.0 | 5.0 | 0.00 | 0.34 | 0.00 | 27 | 1013.1 |